,,,PA_Meas_PMT16A,,PR_Meas_QMR101_102,,RH_Meas_QMH101,,SR_Meas_QMS101,,TA_Meas_QMH101,,GenWind,,GenWind,
date,time,status,PA,status,PR,status,RH,status,SR,status,TA,status,DirAvg,status,SpdAvg,
2008-03-12, 00:00:04,VALID,1003.65,VALID,0,VALID,86.2064,VALID,0.100563,VALID,25.9642,VALID,314,VALID,0.427344,
2008-03-12, 00:01:04,VALID,1003.66,VALID,0,VALID,86.3284,VALID,0,VALID,25.9642,VALID,300,VALID,0.242188,
2008-03-12, 00:02:04,VALID,1003.7,VALID,0,VALID,86.4886,VALID,0,VALID,25.9642,VALID,300,VALID,0.0105469,
2008-03-12, 00:03:04,VALID,1003.69,VALID,0,VALID,86.8167,VALID,0,VALID,25.9447,VALID,300,VALID,0.00273437,
2008-03-12, 00:04:04,VALID,1003.71,VALID,0,VALID,86.6717,VALID,0.100563,VALID,25.9661,VALID,301,VALID,0.258594,
2008-03-12, 00:05:04,VALID,1003.71,VALID,0,VALID,86.6259,VALID,0,VALID,25.9252,VALID,340,VALID,0.307031,
2008-03-12, 00:06:04,VALID,1003.72,VALID,0,VALID,86.7251,VALID,0,VALID,25.9057,VALID,286,VALID,0.555859,
2008-03-12, 00:07:04,VALID,1003.7,VALID,0,VALID,86.8014,VALID,0,VALID,25.9252,VALID,281,VALID,0.287109,
2008-03-12, 00:08:04,VALID,1003.71,VALID,0,VALID,86.4962,VALID,0.100563,VALID,25.9252,VALID,300,VALID,0.361328,
2008-03-12, 00:09:04,VALID,1003.75,VALID,0,VALID,86.8319,VALID,0.100563,VALID,25.9057,VALID,298,VALID,0.303906,
2008-03-12, 00:10:04,VALID,1003.76,VALID,0,VALID,86.8243,VALID,0.100563,VALID,25.9057,VALID,298,VALID,0.266016,
2008-03-12, 00:11:04,VALID,1003.76,VALID,0,VALID,86.9387,VALID,0,VALID,25.8863,VALID,299,VALID,0.486328,
2008-03-12, 00:12:04,VALID,1003.8,VALID,0,VALID,86.9616,VALID,0,VALID,25.8863,VALID,282,VALID,0.569922,
2008-03-12, 00:13:04,VALID,1003.78,VALID,0,VALID,86.9006,VALID,0.100563,VALID,25.8473,VALID,306,VALID,0.391016,
2008-03-12, 00:14:04,VALID,1003.76,VALID,0,VALID,87.2591,VALID,0,VALID,25.8278,VALID,308,VALID,0,
2008-03-12, 00:15:04,VALID,1003.74,VALID,0,VALID,87.3659,VALID,0,VALID,25.8278,VALID,315,VALID,0.231641,
2008-03-12, 00:16:04,VALID,1003.69,VALID,0,VALID,87.5261,VALID,0,VALID,25.8103,VALID,300,VALID,0.173438,
2008-03-12, 00:17:04,VALID,1003.66,VALID,0,VALID,87.4575,VALID,0,VALID,25.748,VALID,321,VALID,0.00117188,
2008-03-12, 00:18:04,VALID,1003.61,VALID,0,VALID,87.7398,VALID,0.100563,VALID,25.7694,VALID,346,VALID,0.421484,
2008-03-12, 00:19:04,VALID,1003.58,VALID,0,VALID,87.6406,VALID,0,VALID,25.7304,VALID,330,VALID,0.48125,
2008-03-12, 00:20:04,VALID,1003.51,VALID,0,VALID,87.8466,VALID,0.100563,VALID,25.7109,VALID,351,VALID,0.483203,
2008-03-12, 00:21:04,VALID,1003.45,VALID,0,VALID,88.1517,VALID,0,VALID,25.6915,VALID,351,VALID,0.500391,
2008-03-12, 00:22:04,VALID,1003.36,VALID,0,VALID,88.1517,VALID,0,VALID,25.6525,VALID,351,VALID,0.417969,
2008-03-12, 00:23:04,VALID,1003.31,VALID,0,VALID,88.3882,VALID,0,VALID,25.633,VALID,351,VALID,0.403125,
2008-03-12, 00:24:04,VALID,1003.24,VALID,0,VALID,88.7239,VALID,0,VALID,25.5727,VALID,353,VALID,0.435547,
2008-03-12, 00:25:04,VALID,1003.19,VALID,0,VALID,88.8307,VALID,0.100563,VALID,25.5551,VALID,348,VALID,0.632422,
2008-03-12, 00:26:04,VALID,1003.12,VALID,0,VALID,89.2198,VALID,0,VALID,25.5162,VALID,352,VALID,0.698438,
2008-03-12, 00:27:04,VALID,1003.03,VALID,0,VALID,89.3494,VALID,0.100563,VALID,25.4558,VALID,354,VALID,0.622266,
2008-03-12, 00:28:04,VALID,1003.03,VALID,0,VALID,89.5631,VALID,0.100563,VALID,25.4383,VALID,360,VALID,0.626172,
2008-03-12, 00:29:04,VALID,1002.97,VALID,0,VALID,89.7843,VALID,0.100563,VALID,25.3974,VALID,357,VALID,0.666016,
2008-03-12, 00:30:04,VALID,1002.93,VALID,0,VALID,89.9216,VALID,0,VALID,25.3798,VALID,353,VALID,0.585547,
2008-03-12, 00:31:04,VALID,1002.93,VALID,0,VALID,90.2497,VALID,0,VALID,25.3584,VALID,348,VALID,0.476172,
2008-03-12, 00:32:04,VALID,1002.92,VALID,0,VALID,90.12,VALID,0.100563,VALID,25.3604,VALID,360,VALID,0.924609,
2008-03-12, 00:33:04,VALID,1002.9,VALID,0,VALID,90.0437,VALID,0.100563,VALID,25.339,VALID,55,VALID,1.42656,
2008-03-12, 00:34:04,VALID,1002.91,VALID,0,VALID,89.9826,VALID,0,VALID,25.3584,VALID,345,VALID,0.751172,
2008-03-12, 00:35:04,VALID,1002.92,VALID,0,VALID,90.2344,VALID,0,VALID,25.3993,VALID,357,VALID,0.572266,
2008-03-12, 00:36:04,VALID,1002.92,VALID,0,VALID,89.9216,VALID,0.100563,VALID,25.3974,VALID,329,VALID,0.946094,
2008-03-12, 00:37:04,VALID,1002.94,VALID,0,VALID,89.6699,VALID,0.100563,VALID,25.4383,VALID,355,VALID,1.35312,
2008-03-12, 00:38:04,VALID,1002.89,VALID,0,VALID,89.3342,VALID,0,VALID,25.4948,VALID,16,VALID,1.02031,
2008-03-12, 00:39:04,VALID,1002.94,VALID,0,VALID,88.968,VALID,0.100563,VALID,25.5727,VALID,11,VALID,1.57266,
2008-03-12, 00:40:04,VALID,1002.93,VALID,0,VALID,89.0138,VALID,0,VALID,25.6136,VALID,358,VALID,0.977734,
2008-03-12, 00:41:04,VALID,1002.92,VALID,0,VALID,88.6247,VALID,0.100563,VALID,25.6525,VALID,350,VALID,1.12344,
2008-03-12, 00:42:04,VALID,1002.91,VALID,0,VALID,88.5713,VALID,0.100563,VALID,25.672,VALID,315,VALID,0.426953,
2008-03-12, 00:43:04,VALID,1002.84,VALID,0,VALID,88.6476,VALID,0,VALID,25.672,VALID,314,VALID,0.807031,
2008-03-12, 00:44:04,VALID,1002.84,VALID,0,VALID,88.5026,VALID,0,VALID,25.6915,VALID,287,VALID,0.308203,
2008-03-12, 00:45:04,VALID,1002.83,VALID,0,VALID,88.4035,VALID,0,VALID,25.6915,VALID,252,VALID,0.689844,
2008-03-12, 00:46:04,VALID,1002.82,VALID,0,VALID,88.3119,VALID,0,VALID,25.7109,VALID,2,VALID,0.904688,
2008-03-12, 00:47:04,VALID,1002.84,VALID,0,VALID,88.3653,VALID,0,VALID,25.7304,VALID,347,VALID,0.585547,
2008-03-12, 00:48:04,VALID,1002.86,VALID,0,VALID,88.3043,VALID,0.100563,VALID,25.7304,VALID,31,VALID,0.557031,
2008-03-12, 00:49:04,VALID,1002.9,VALID,0,VALID,88.3577,VALID,0.100563,VALID,25.7304,VALID,31,VALID,0.0191406,
2008-03-12, 00:50:04,VALID,1002.9,VALID,0,VALID,88.2814,VALID,0.100563,VALID,25.7304,VALID,31,VALID,0.071875,
2008-03-12, 00:51:04,VALID,1002.9,VALID,0,VALID,88.1593,VALID,0,VALID,25.7304,VALID,350,VALID,0.829297,
2008-03-12, 00:52:04,VALID,1002.9,VALID,0,VALID,88.2967,VALID,0.100563,VALID,25.7694,VALID,35,VALID,0.492188,
2008-03-12, 00:53:04,VALID,1002.85,VALID,0,VALID,88.0754,VALID,0.100563,VALID,25.7694,VALID,329,VALID,0.274609,
2008-03-12, 00:54:04,VALID,1002.83,VALID,0,VALID,87.9076,VALID,0.100563,VALID,25.7694,VALID,55,VALID,0.372266,
2008-03-12, 00:55:04,VALID,1002.84,VALID,0,VALID,88.0296,VALID,0.100563,VALID,25.7674,VALID,331,VALID,0.433203,
2008-03-12, 00:56:04,VALID,1002.82,VALID,0,VALID,87.9839,VALID,0.100563,VALID,25.7674,VALID,336,VALID,0.354297,
2008-03-12, 00:57:04,VALID,1002.79,VALID,0,VALID,88.167,VALID,0,VALID,25.7889,VALID,4,VALID,0.446094,
2008-03-12, 00:58:04,VALID,1002.77,VALID,0,VALID,88.1517,VALID,0,VALID,25.748,VALID,20,VALID,0.871094,
2008-03-12, 00:59:04,VALID,1002.73,VALID,0,VALID,88.289,VALID,0.100563,VALID,25.7499,VALID,30,VALID,0.652344,
2008-03-12, 01:00:04,VALID,1002.69,VALID,0,VALID,87.9991,VALID,0,VALID,25.7285,VALID,360,VALID,0.949609,
2008-03-12, 01:01:04,VALID,1002.68,VALID,0,VALID,88.0068,VALID,0.100563,VALID,25.7889,VALID,18,VALID,1.29062,
2008-03-12, 01:02:04,VALID,1002.62,VALID,0,VALID,88.0754,VALID,0,VALID,25.7889,VALID,3,VALID,0.582812,
2008-03-12, 01:03:04,VALID,1002.63,VALID,0,VALID,87.8466,VALID,0,VALID,25.7889,VALID,352,VALID,0.700391,
2008-03-12, 01:04:04,VALID,1002.61,VALID,0,VALID,87.9,VALID,0,VALID,25.7889,VALID,3,VALID,0.892969,
2008-03-12, 01:05:04,VALID,1002.62,VALID,0,VALID,87.9686,VALID,0,VALID,25.7694,VALID,350,VALID,0.754687,
2008-03-12, 01:06:04,VALID,1002.61,VALID,0,VALID,87.6787,VALID,0,VALID,25.7674,VALID,334,VALID,1.08125,
2008-03-12, 01:07:04,VALID,1002.6,VALID,0,VALID,87.5643,VALID,0,VALID,25.8278,VALID,332,VALID,0.846484,
2008-03-12, 01:08:04,VALID,1002.67,VALID,0,VALID,87.7092,VALID,0,VALID,25.8473,VALID,344,VALID,0.601953,
2008-03-12, 01:09:04,VALID,1002.68,VALID,0,VALID,87.2515,VALID,0,VALID,25.8668,VALID,336,VALID,1.34102,
2008-03-12, 01:10:04,VALID,1002.69,VALID,0,VALID,87.0379,VALID,0,VALID,25.8843,VALID,21,VALID,1.34297,
2008-03-12, 01:11:04,VALID,1002.72,VALID,0,VALID,86.9464,VALID,0.100563,VALID,25.9447,VALID,342,VALID,0.679688,
2008-03-12, 01:12:04,VALID,1002.71,VALID,0,VALID,87.076,VALID,0.100563,VALID,25.9642,VALID,358,VALID,0.541406,
2008-03-12, 01:13:04,VALID,1002.73,VALID,0,VALID,87.0608,VALID,0.100563,VALID,25.9252,VALID,20,VALID,1.02695,
2008-03-12, 01:14:04,VALID,1002.72,VALID,0,VALID,86.954,VALID,0,VALID,25.9252,VALID,346,VALID,0.625781,
2008-03-12, 01:15:04,VALID,1002.71,VALID,0,VALID,86.7022,VALID,0,VALID,25.9252,VALID,352,VALID,0.940234,
2008-03-12, 01:16:04,VALID,1002.75,VALID,0,VALID,86.6565,VALID,0,VALID,25.9642,VALID,352,VALID,1.03984,
2008-03-12, 01:17:04,VALID,1002.83,VALID,0,VALID,86.7633,VALID,0,VALID,25.9836,VALID,349,VALID,0.476953,
2008-03-12, 01:18:04,VALID,1002.88,VALID,0,VALID,86.7633,VALID,0,VALID,25.9836,VALID,341,VALID,1.10078,
2008-03-12, 01:19:04,VALID,1002.95,VALID,0,VALID,87.0303,VALID,0,VALID,25.9836,VALID,336,VALID,0.346484,
2008-03-12, 01:20:04,VALID,1003.06,VALID,0,VALID,87.1142,VALID,0.100563,VALID,26.0051,VALID,357,VALID,1.0168,
2008-03-12, 01:21:04,VALID,1003.24,VALID,0.5,VALID,88.8002,VALID,0,VALID,25.9447,VALID,9,VALID,1.01328,
2008-03-12, 01:22:04,VALID,1003.18,VALID,1,VALID,89.3113,VALID,0,VALID,25.7694,VALID,341,VALID,1.62344,
2008-03-12, 01:23:04,VALID,1003.12,VALID,0.5,VALID,90.387,VALID,0.100563,VALID,25.5162,VALID,24,VALID,1.48984,
2008-03-12, 01:24:04,VALID,1003.04,VALID,1,VALID,90.7837,VALID,0,VALID,25.3039,VALID,351,VALID,1.71094,
2008-03-12, 01:25:04,VALID,1003.05,VALID,0,VALID,91.2643,VALID,0,VALID,25.0682,VALID,357,VALID,1.96094,
2008-03-12, 01:26:04,VALID,1003.03,VALID,0,VALID,92.2561,VALID,0.100563,VALID,24.893,VALID,349,VALID,1.19961,
2008-03-12, 01:27:04,VALID,1002.98,VALID,0,VALID,92.8664,VALID,0,VALID,24.7975,VALID,307,VALID,1.51719,
2008-03-12, 01:28:04,VALID,1002.93,VALID,0,VALID,93.6292,VALID,0,VALID,24.6593,VALID,353,VALID,0.939844,
2008-03-12, 01:29:04,VALID,1002.96,VALID,0,VALID,94.0946,VALID,0,VALID,24.6417,VALID,345,VALID,0.562109,
2008-03-12, 01:30:04,VALID,1002.92,VALID,0,VALID,94.3998,VALID,0,VALID,24.5814,VALID,346,VALID,0.855859,
2008-03-12, 01:31:04,VALID,1002.94,VALID,0,VALID,94.6057,VALID,0,VALID,24.562,VALID,351,VALID,1.14883,
2008-03-12, 01:32:04,VALID,1002.93,VALID,0,VALID,94.8575,VALID,0,VALID,24.5425,VALID,348,VALID,1.01641,
2008-03-12, 01:33:04,VALID,1002.97,VALID,0,VALID,95.0024,VALID,0,VALID,24.5425,VALID,344,VALID,0.734375,
2008-03-12, 01:34:04,VALID,1002.95,VALID,0,VALID,95.1932,VALID,0.100563,VALID,24.5425,VALID,340,VALID,0.605859,
2008-03-12, 01:35:04,VALID,1002.91,VALID,0,VALID,95.3229,VALID,0,VALID,24.5638,VALID,359,VALID,0.7125,
2008-03-12, 01:36:04,VALID,1002.85,VALID,0,VALID,95.3915,VALID,0,VALID,24.5425,VALID,358,VALID,1.69687,
2008-03-12, 01:37:04,VALID,1002.78,VALID,0,VALID,95.5136,VALID,0,VALID,24.5425,VALID,350,VALID,1.02656,
2008-03-12, 01:38:04,VALID,1002.69,VALID,0,VALID,95.5365,VALID,0,VALID,24.5425,VALID,357,VALID,0.992188,
2008-03-12, 01:39:04,VALID,1002.64,VALID,0,VALID,95.4754,VALID,0.100563,VALID,24.523,VALID,6,VALID,1.33164,
2008-03-12, 01:40:04,VALID,1002.54,VALID,0,VALID,95.5365,VALID,0.100563,VALID,24.523,VALID,2,VALID,0.895703,
2008-03-12, 01:41:04,VALID,1002.5,VALID,0,VALID,95.5517,VALID,0.100563,VALID,24.5035,VALID,348,VALID,1.1043,
2008-03-12, 01:42:04,VALID,1002.46,VALID,0,VALID,95.6509,VALID,0.100563,VALID,24.5035,VALID,344,VALID,0.655469,
2008-03-12, 01:43:04,VALID,1002.44,VALID,0,VALID,95.6433,VALID,0,VALID,24.5249,VALID,330,VALID,0.705078,
2008-03-12, 01:44:04,VALID,1002.51,VALID,0,VALID,95.5975,VALID,0,VALID,24.4859,VALID,353,VALID,1.58125,
2008-03-12, 01:45:04,VALID,1002.53,VALID,0,VALID,95.6738,VALID,0,VALID,24.4841,VALID,352,VALID,0.616797,
2008-03-12, 01:46:04,VALID,1002.59,VALID,0,VALID,95.6433,VALID,0,VALID,24.4859,VALID,302,VALID,0.597656,
2008-03-12, 01:47:04,VALID,1002.64,VALID,0,VALID,95.6662,VALID,0,VALID,24.4859,VALID,342,VALID,1.20781,
2008-03-12, 01:48:04,VALID,1002.68,VALID,0,VALID,95.6738,VALID,0,VALID,24.4859,VALID,336,VALID,0.679688,
2008-03-12, 01:49:04,VALID,1002.67,VALID,0,VALID,95.5136,VALID,0,VALID,24.4665,VALID,347,VALID,1.61523,
2008-03-12, 01:50:04,VALID,1002.7,VALID,0,VALID,95.5212,VALID,0,VALID,24.4665,VALID,345,VALID,0.848047,
2008-03-12, 01:51:04,VALID,1002.72,VALID,0,VALID,95.5288,VALID,0,VALID,24.447,VALID,354,VALID,0.708984,
2008-03-12, 01:52:04,VALID,1002.74,VALID,0,VALID,95.5441,VALID,0,VALID,24.4257,VALID,4,VALID,0.600391,
2008-03-12, 01:53:04,VALID,1002.76,VALID,0,VALID,95.4983,VALID,0.100563,VALID,24.3849,VALID,344,VALID,0.617188,
2008-03-12, 01:54:04,VALID,1002.79,VALID,0,VALID,95.5136,VALID,0,VALID,24.4062,VALID,7,VALID,0.583203,
2008-03-12, 01:55:04,VALID,1002.84,VALID,0,VALID,95.5594,VALID,0,VALID,24.3867,VALID,1,VALID,0.546484,
2008-03-12, 01:56:04,VALID,1002.84,VALID,0,VALID,95.5517,VALID,0,VALID,24.4062,VALID,320,VALID,0.778125,
2008-03-12, 01:57:04,VALID,1002.83,VALID,0,VALID,95.5594,VALID,0.100563,VALID,24.3673,VALID,340,VALID,0.339063,
2008-03-12, 01:58:04,VALID,1002.82,VALID,0,VALID,95.6509,VALID,0.100563,VALID,24.3867,VALID,347,VALID,0.344922,
2008-03-12, 01:59:04,VALID,1002.85,VALID,0,VALID,95.6738,VALID,0.100563,VALID,24.3673,VALID,347,VALID,0.00273437,
2008-03-12, 02:00:04,VALID,1002.85,VALID,0,VALID,95.6204,VALID,0,VALID,24.3283,VALID,348,VALID,0.297656,
2008-03-12, 02:01:04,VALID,1002.83,VALID,0,VALID,95.567,VALID,0.100563,VALID,24.3088,VALID,1,VALID,0.432813,
2008-03-12, 02:02:04,VALID,1002.78,VALID,0,VALID,95.5594,VALID,0,VALID,24.2894,VALID,332,VALID,0.596875,
2008-03-12, 02:03:04,VALID,1002.79,VALID,0,VALID,95.5822,VALID,0.100563,VALID,24.2894,VALID,341,VALID,0.288281,
2008-03-12, 02:04:04,VALID,1002.79,VALID,0,VALID,95.5441,VALID,0,VALID,24.2504,VALID,1,VALID,0.585156,
2008-03-12, 02:05:04,VALID,1002.76,VALID,0,VALID,95.6738,VALID,0,VALID,24.2504,VALID,11,VALID,0.295312,
2008-03-12, 02:06:04,VALID,1002.74,VALID,0,VALID,95.689,VALID,0,VALID,24.2699,VALID,11,VALID,0.439453,
2008-03-12, 02:07:04,VALID,1002.72,VALID,0,VALID,95.5517,VALID,0,VALID,24.2097,VALID,5,VALID,0.372656,
2008-03-12, 02:08:04,VALID,1002.66,VALID,0,VALID,95.5594,VALID,0,VALID,24.2328,VALID,355,VALID,0.511719,
2008-03-12, 02:09:04,VALID,1002.65,VALID,0,VALID,95.6814,VALID,0,VALID,24.2133,VALID,353,VALID,0.317578,
2008-03-12, 02:10:04,VALID,1002.63,VALID,0,VALID,95.6662,VALID,0,VALID,24.1939,VALID,353,VALID,0.571875,
2008-03-12, 02:11:04,VALID,1002.54,VALID,0,VALID,95.7577,VALID,0,VALID,24.192,VALID,353,VALID,0.151953,
2008-03-12, 02:12:04,VALID,1002.6,VALID,0,VALID,95.7653,VALID,0,VALID,24.1939,VALID,354,VALID,0.398438,
2008-03-12, 02:13:04,VALID,1002.57,VALID,0,VALID,95.8035,VALID,0,VALID,24.1939,VALID,11,VALID,0.247266,
2008-03-12, 02:14:04,VALID,1002.6,VALID,0,VALID,95.7424,VALID,0,VALID,24.1744,VALID,26,VALID,0.512109,
2008-03-12, 02:15:04,VALID,1002.55,VALID,0,VALID,95.7272,VALID,0,VALID,24.1336,VALID,30,VALID,0.6375,
2008-03-12, 02:16:04,VALID,1002.55,VALID,0,VALID,95.7577,VALID,0,VALID,24.1549,VALID,21,VALID,0.310937,
2008-03-12, 02:17:04,VALID,1002.56,VALID,0,VALID,95.773,VALID,0,VALID,24.1355,VALID,36,VALID,0.576563,
2008-03-12, 02:18:04,VALID,1002.57,VALID,0,VALID,95.6509,VALID,0,VALID,24.116,VALID,27,VALID,0.965234,
2008-03-12, 02:19:04,VALID,1002.58,VALID,0,VALID,95.7272,VALID,0,VALID,24.116,VALID,28,VALID,0.246484,
2008-03-12, 02:20:04,VALID,1002.6,VALID,0,VALID,95.7196,VALID,0,VALID,24.116,VALID,28,VALID,0.250391,
2008-03-12, 02:21:04,VALID,1002.58,VALID,0,VALID,95.7196,VALID,0,VALID,24.0947,VALID,28,VALID,0.421484,
2008-03-12, 02:22:04,VALID,1002.57,VALID,0,VALID,95.6967,VALID,0,VALID,24.0965,VALID,28,VALID,0.497266,
2008-03-12, 02:23:04,VALID,1002.53,VALID,0,VALID,95.8035,VALID,0,VALID,24.0965,VALID,27,VALID,0.314844,
2008-03-12, 02:24:04,VALID,1002.5,VALID,0,VALID,95.8035,VALID,0,VALID,24.0965,VALID,27,VALID,0.276563,
2008-03-12, 02:25:04,VALID,1002.45,VALID,0,VALID,95.7959,VALID,0,VALID,24.0965,VALID,23,VALID,0.250391,
2008-03-12, 02:26:04,VALID,1002.4,VALID,0,VALID,95.7653,VALID,0,VALID,24.0752,VALID,23,VALID,0.226563,
2008-03-12, 02:27:04,VALID,1002.36,VALID,0,VALID,95.773,VALID,0,VALID,24.0965,VALID,23,VALID,0.363672,
2008-03-12, 02:28:04,VALID,1002.35,VALID,0,VALID,95.8111,VALID,0,VALID,24.0752,VALID,4,VALID,0.365234,
2008-03-12, 02:29:04,VALID,1002.33,VALID,0,VALID,95.8798,VALID,0,VALID,24.0752,VALID,4,VALID,0.378906,
2008-03-12, 02:30:04,VALID,1002.34,VALID,0,VALID,95.9713,VALID,0,VALID,24.0947,VALID,4,VALID,0.358984,
2008-03-12, 02:31:04,VALID,1002.34,VALID,0,VALID,96.0247,VALID,0,VALID,24.1355,VALID,4,VALID,0.325391,
2008-03-12, 02:32:04,VALID,1002.34,VALID,0,VALID,96.0323,VALID,0,VALID,24.1549,VALID,4,VALID,0.103906,
2008-03-12, 02:33:04,VALID,1002.37,VALID,0,VALID,96.0095,VALID,0,VALID,24.1336,VALID,4,VALID,0.169141,
2008-03-12, 02:34:04,VALID,1002.36,VALID,0,VALID,96.0247,VALID,0,VALID,24.1355,VALID,4,VALID,0.276563,
2008-03-12, 02:35:04,VALID,1002.4,VALID,0,VALID,96.0857,VALID,0,VALID,24.1336,VALID,4,VALID,0.0945313,
2008-03-12, 02:36:04,VALID,1002.43,VALID,0,VALID,96.1315,VALID,0,VALID,24.1531,VALID,4,VALID,0.148047,
2008-03-12, 02:37:04,VALID,1002.44,VALID,0,VALID,96.0476,VALID,0,VALID,24.1142,VALID,4,VALID,0.301172,
2008-03-12, 02:38:04,VALID,1002.47,VALID,0,VALID,96.101,VALID,0,VALID,24.1336,VALID,4,VALID,0,
2008-03-12, 02:39:04,VALID,1002.53,VALID,0,VALID,96.1086,VALID,0,VALID,24.1336,VALID,3,VALID,0.358984,
2008-03-12, 02:40:04,VALID,1002.57,VALID,0,VALID,96.1849,VALID,0,VALID,24.1744,VALID,3,VALID,0.212891,
2008-03-12, 02:41:04,VALID,1002.61,VALID,0,VALID,96.2383,VALID,0,VALID,24.1939,VALID,3,VALID,0,
2008-03-12, 02:42:04,VALID,1002.64,VALID,0,VALID,96.1239,VALID,0,VALID,24.1939,VALID,3,VALID,0,
2008-03-12, 02:43:04,VALID,1002.72,VALID,0,VALID,96.1163,VALID,0,VALID,24.1744,VALID,3,VALID,0,
2008-03-12, 02:44:04,VALID,1002.74,VALID,0,VALID,96.1392,VALID,0,VALID,24.1744,VALID,3,VALID,0.124609,
2008-03-12, 02:45:04,VALID,1002.79,VALID,0,VALID,96.1468,VALID,0,VALID,24.1531,VALID,351,VALID,0.0125,
2008-03-12, 02:46:04,VALID,1002.85,VALID,0,VALID,96.1239,VALID,0,VALID,24.1939,VALID,304,VALID,0.336328,
2008-03-12, 02:47:04,VALID,1002.91,VALID,0,VALID,96.1163,VALID,0,VALID,24.1531,VALID,263,VALID,0.192578,
2008-03-12, 02:48:04,VALID,1002.95,VALID,0,VALID,96.1392,VALID,0,VALID,24.1744,VALID,263,VALID,0,
2008-03-12, 02:49:04,VALID,1002.97,VALID,0,VALID,96.0934,VALID,0,VALID,24.1744,VALID,263,VALID,0.0515625,
2008-03-12, 02:50:04,VALID,1002.96,VALID,0,VALID,96.0934,VALID,0,VALID,24.1336,VALID,263,VALID,0.272266,
2008-03-12, 02:51:04,VALID,1002.94,VALID,0,VALID,96.1163,VALID,0,VALID,24.1744,VALID,263,VALID,0.0382813,
2008-03-12, 02:52:04,VALID,1002.96,VALID,0.5,VALID,96.1849,VALID,0,VALID,24.1939,VALID,263,VALID,0,
2008-03-12, 02:53:04,VALID,1002.94,VALID,0,VALID,96.2536,VALID,0,VALID,24.2133,VALID,263,VALID,0,
2008-03-12, 02:54:04,VALID,1002.94,VALID,0,VALID,96.246,VALID,0,VALID,24.2115,VALID,263,VALID,0,
2008-03-12, 02:55:04,VALID,1002.89,VALID,0,VALID,96.2307,VALID,0,VALID,24.2328,VALID,263,VALID,0,
2008-03-12, 02:56:04,VALID,1002.91,VALID,0,VALID,96.2307,VALID,0,VALID,24.231,VALID,263,VALID,0,
2008-03-12, 02:57:04,VALID,1002.92,VALID,0,VALID,96.162,VALID,0,VALID,24.192,VALID,263,VALID,0,
2008-03-12, 02:58:04,VALID,1002.92,VALID,0,VALID,96.2231,VALID,0,VALID,24.2328,VALID,226,VALID,0.0402344,
2008-03-12, 02:59:04,VALID,1002.97,VALID,0,VALID,96.2383,VALID,0,VALID,24.192,VALID,93,VALID,0.620703,
2008-03-12, 03:00:04,VALID,1003.05,VALID,0,VALID,96.2765,VALID,0,VALID,24.2328,VALID,93,VALID,0.526953,
2008-03-12, 03:01:04,VALID,1003.1,VALID,0,VALID,96.307,VALID,0,VALID,24.2523,VALID,117,VALID,0.749609,
2008-03-12, 03:02:04,VALID,1003.13,VALID,0,VALID,96.3222,VALID,0,VALID,24.2717,VALID,146,VALID,0.982422,
2008-03-12, 03:03:04,VALID,1003.12,VALID,0,VALID,96.2536,VALID,0,VALID,24.2115,VALID,153,VALID,0.971484,
2008-03-12, 03:04:04,VALID,1003.1,VALID,0,VALID,96.2307,VALID,0,VALID,24.192,VALID,172,VALID,1.06406,
2008-03-12, 03:05:04,VALID,1003.08,VALID,0,VALID,96.1468,VALID,0,VALID,24.2133,VALID,185,VALID,1.43984,
2008-03-12, 03:06:04,VALID,1003.12,VALID,0,VALID,96.2002,VALID,0,VALID,24.1939,VALID,175,VALID,0.873828,
2008-03-12, 03:07:04,VALID,1003.11,VALID,0,VALID,96.2383,VALID,0,VALID,24.192,VALID,167,VALID,1.04336,
2008-03-12, 03:08:04,VALID,1003.1,VALID,0,VALID,96.2154,VALID,0,VALID,24.192,VALID,164,VALID,0.741016,
2008-03-12, 03:09:04,VALID,1003.13,VALID,0,VALID,96.2154,VALID,0,VALID,24.2133,VALID,147,VALID,0.619531,
2008-03-12, 03:10:04,VALID,1003.1,VALID,0.5,VALID,96.2231,VALID,0,VALID,24.2115,VALID,147,VALID,0.267188,
2008-03-12, 03:11:04,VALID,1003.03,VALID,0,VALID,96.246,VALID,0,VALID,24.1902,VALID,146,VALID,0.0257812,
2008-03-12, 03:12:04,VALID,1003.03,VALID,0,VALID,96.246,VALID,0,VALID,24.2115,VALID,12,VALID,0.274609,
2008-03-12, 03:13:04,VALID,1003.04,VALID,0,VALID,96.2765,VALID,0,VALID,24.2504,VALID,339,VALID,0.469141,
2008-03-12, 03:14:04,VALID,1003.06,VALID,0,VALID,96.3375,VALID,0,VALID,24.2699,VALID,353,VALID,1.1543,
2008-03-12, 03:15:04,VALID,1003.03,VALID,0,VALID,96.3299,VALID,0,VALID,24.3107,VALID,352,VALID,1.43516,
2008-03-12, 03:16:04,VALID,1003.03,VALID,0,VALID,96.307,VALID,0,VALID,24.3107,VALID,358,VALID,0.946875,
2008-03-12, 03:17:04,VALID,1003.03,VALID,0,VALID,96.3375,VALID,0,VALID,24.3283,VALID,12,VALID,1.15,
2008-03-12, 03:18:04,VALID,1003.09,VALID,0,VALID,96.3833,VALID,0,VALID,24.3673,VALID,6,VALID,0.826563,
2008-03-12, 03:19:04,VALID,1003.15,VALID,0,VALID,96.3833,VALID,0,VALID,24.3867,VALID,352,VALID,0.597656,
2008-03-12, 03:20:04,VALID,1003.21,VALID,0,VALID,96.3451,VALID,0,VALID,24.3867,VALID,22,VALID,1.42773,
2008-03-12, 03:21:04,VALID,1003.25,VALID,0,VALID,96.3222,VALID,0,VALID,24.4257,VALID,75,VALID,1.35781,
2008-03-12, 03:22:04,VALID,1003.28,VALID,0.5,VALID,96.2383,VALID,0,VALID,24.4451,VALID,107,VALID,0.812891,
2008-03-12, 03:23:04,VALID,1003.27,VALID,0.5,VALID,96.1773,VALID,0,VALID,24.4451,VALID,149,VALID,1.62031,
2008-03-12, 03:24:04,VALID,1003.3,VALID,0,VALID,96.0934,VALID,0,VALID,24.4841,VALID,170,VALID,3.19766,
2008-03-12, 03:25:04,VALID,1003.3,VALID,0.5,VALID,95.9103,VALID,0,VALID,24.4646,VALID,179,VALID,2.51094,
2008-03-12, 03:26:04,VALID,1003.37,VALID,0,VALID,95.8111,VALID,0,VALID,24.4646,VALID,171,VALID,2.56602,
2008-03-12, 03:27:04,VALID,1003.3,VALID,0.5,VALID,95.8264,VALID,0,VALID,24.4257,VALID,173,VALID,1.23242,
2008-03-12, 03:28:04,VALID,1003.26,VALID,0,VALID,95.9103,VALID,0,VALID,24.4062,VALID,235,VALID,0.570313,
2008-03-12, 03:29:04,VALID,1003.24,VALID,0,VALID,95.9942,VALID,0,VALID,24.3867,VALID,217,VALID,0.753125,
2008-03-12, 03:30:04,VALID,1003.24,VALID,0,VALID,96.0781,VALID,0,VALID,24.3867,VALID,212,VALID,0.579297,
2008-03-12, 03:31:04,VALID,1003.29,VALID,0,VALID,96.1315,VALID,0,VALID,24.3886,VALID,44,VALID,0.535937,
2008-03-12, 03:32:04,VALID,1003.27,VALID,0,VALID,96.0781,VALID,0,VALID,24.3691,VALID,63,VALID,1.86055,
2008-03-12, 03:33:04,VALID,1003.34,VALID,0,VALID,95.9484,VALID,0,VALID,24.3088,VALID,110,VALID,2.1293,
2008-03-12, 03:34:04,VALID,1003.37,VALID,0,VALID,95.8798,VALID,0.100563,VALID,24.2699,VALID,132,VALID,1.19336,
2008-03-12, 03:35:04,VALID,1003.33,VALID,0,VALID,95.8645,VALID,0,VALID,24.2115,VALID,132,VALID,1.35195,
2008-03-12, 03:36:04,VALID,1003.27,VALID,0,VALID,95.8264,VALID,0.100563,VALID,24.1531,VALID,137,VALID,1.09453,
2008-03-12, 03:37:04,VALID,1003.21,VALID,0,VALID,95.9484,VALID,0,VALID,24.1336,VALID,151,VALID,1.0957,
2008-03-12, 03:38:04,VALID,1003.2,VALID,0,VALID,95.9103,VALID,0,VALID,24.0947,VALID,100,VALID,0.897266,
2008-03-12, 03:39:04,VALID,1003.26,VALID,0,VALID,96.0018,VALID,0,VALID,24.0557,VALID,91,VALID,0.492578,
2008-03-12, 03:40:04,VALID,1003.29,VALID,0,VALID,96.101,VALID,0,VALID,24.0557,VALID,72,VALID,0.666797,
2008-03-12, 03:41:04,VALID,1003.2,VALID,0,VALID,96.1392,VALID,0,VALID,24.0557,VALID,64,VALID,0.372266,
2008-03-12, 03:42:04,VALID,1003.11,VALID,0,VALID,96.2536,VALID,0,VALID,24.0363,VALID,330,VALID,0.510547,
2008-03-12, 03:43:04,VALID,1003.07,VALID,0.5,VALID,96.2841,VALID,0,VALID,24.0557,VALID,231,VALID,0.610156,